Andrews, TX

7:03 AM CST on December 15, 2019 (GMT -0600)
Andrews

Weather History for KE11 - September, 2019

Change the Weather History Date:

Thursday, September 19, 2019

  Actual Average (WUND) Record (WUND)
Temperature  
Mean Temperature 80 °F -  
Max Temperature 93 °F - - (-1)
Min Temperature 67 °F - - (-1)
Cooling Degree Days 15    
Growing Degree Days 30 (Base 50)    
Moisture  
Dew Point 60 °F    
Average Humidity 57    
Maximum Humidity 83    
Minimum Humidity 29    
Precipitation  
Precipitation 0.00 in - - ()
Sea Level Pressure  
Sea Level Pressure 29.97 in    
Wind  
Wind Speed 4 mph ()    
Max Wind Speed 14 mph    
Max Gust Speed 17 mph    
Visibility 10.0 miles    
Events Rain , Thunderstorm    
Averages and records for this station are not official NWS values.
T = Trace of Precipitation, MM = Missing Value Source: Averaged Metar Reports

Daily Weather History Graph

Daily Weather History Graph

Search for Another Location

Airport or City:

Astronomy

Sep. 19, 2019 Rise Set
Actual Time 7:36 AM CDT 7:51 PM CDT
Civil Twilight 7:11 AM CDT 8:15 PM CDT
Nautical Twilight 6:43 AM CDT 8:44 PM CDT
Astronomical Twilight 6:14 AM CDT 9:13 PM CDT
Moon 11:18 PM CDT (9/19) 12:25 PM CDT (9/19)
Length of Visible Light 13h 03m
Length of Day
12h 14m
Waning Gibbous, 74% of the Moon is Illuminated
Sep 19
Waning Gibbous
Sep 21
Last Quarter
Sep 28
New
Oct 5
First Quarter
Oct 13
Full

Hourly Weather History & Observations

Time (CDT) Temp. Heat Index Dew Point Humidity Pressure Visibility Wind Dir Wind Speed Gust Speed Precip Events Conditions
12:15 AM 77.9 °F - 58.1 °F 50% 30.02 in 10.0 mi South 4.6 mph - N/A   Clear
12:35 AM 76.6 °F - 58.1 °F 53% 30.01 in 10.0 mi SE 3.5 mph - N/A   Clear
12:55 AM 75.2 °F - 59.9 °F 59% 30.01 in 10.0 mi Calm Calm - N/A   Clear
1:15 AM 74.1 °F - 60.8 °F 63% 30.01 in 10.0 mi ESE 3.5 mph - N/A   Clear
1:35 AM 73.6 °F - 62.1 °F 67% 30.01 in 10.0 mi Calm Calm - N/A   Clear
1:55 AM 72.5 °F - 62.8 °F 71% 30.01 in 10.0 mi Calm Calm - N/A   Clear
2:15 AM 72.5 °F - 61.0 °F 67% 30.01 in 10.0 mi East 4.6 mph - N/A   Clear
2:35 AM 70.7 °F - 62.2 °F 75% 30.01 in 10.0 mi ESE 3.5 mph - N/A   Clear
2:55 AM 71.2 °F - 60.4 °F 69% 30.00 in 10.0 mi SE 6.9 mph - N/A   Clear
3:15 AM 73.4 °F - 59.0 °F 61% 30.00 in 10.0 mi SE 4.6 mph - N/A   Clear
3:35 AM 72.5 °F - 59.0 °F 62% 30.00 in 10.0 mi SE 4.6 mph - N/A   Clear
3:55 AM 71.8 °F - 58.6 °F 63% 29.99 in 10.0 mi SSE 4.6 mph - N/A   Clear
4:15 AM 71.2 °F - 58.6 °F 64% 29.99 in 10.0 mi SSE 4.6 mph - N/A   Clear
4:35 AM 70.7 °F - 59.0 °F 66% 29.99 in 10.0 mi SE 4.6 mph - N/A   Clear
4:55 AM 69.8 °F - 59.4 °F 69% 29.99 in 10.0 mi SE 4.6 mph - N/A   Clear
5:15 AM 69.3 °F - 59.5 °F 71% 29.98 in 10.0 mi SE 3.5 mph - N/A   Clear
5:35 AM 69.1 °F - 59.0 °F 70% 29.98 in 10.0 mi SE 4.6 mph - N/A   Clear
5:55 AM 68.4 °F - 59.5 °F 73% 29.98 in 10.0 mi ESE 4.6 mph - N/A   Clear
6:15 AM 67.6 °F - 59.4 °F 75% 29.98 in 10.0 mi SE 4.6 mph - N/A   Clear
6:35 AM 67.6 °F - 60.8 °F 79% 29.98 in 10.0 mi Calm Calm - N/A   Clear
6:55 AM 67.6 °F - 60.8 °F 79% 29.99 in 10.0 mi Calm Calm - N/A   Clear
7:15 AM 67.3 °F - 61.0 °F 80% 29.99 in 10.0 mi SE 3.5 mph - N/A   Clear
7:35 AM 67.1 °F - 61.7 °F 83% 29.99 in 10.0 mi Calm Calm - N/A   Clear
7:55 AM 67.6 °F - 61.3 °F 80% 29.99 in 10.0 mi SE 4.6 mph - N/A   Clear
8:15 AM 68.4 °F - 61.2 °F 78% 29.99 in 10.0 mi SE 4.6 mph - N/A   Clear
8:35 AM 68.9 °F - 61.2 °F 76% 29.99 in 10.0 mi SE 4.6 mph - N/A   Clear
8:55 AM 70.9 °F - 61.0 °F 71% 30.00 in 10.0 mi SE 4.6 mph - N/A   Clear
9:15 AM 73.0 °F - 61.2 °F 66% 30.00 in 10.0 mi SSE 5.8 mph - N/A   Clear
9:35 AM 76.1 °F - 61.5 °F 60% 30.00 in 10.0 mi SE 4.6 mph - N/A   Clear
9:55 AM 77.7 °F - 61.5 °F 57% 30.00 in 10.0 mi SE 5.8 mph - N/A   Clear
10:15 AM 78.1 °F - 61.0 °F 56% 30.01 in 10.0 mi SE 6.9 mph - N/A   Clear
10:35 AM 80.8 °F 81.6 °F 61.3 °F 51% 30.01 in 10.0 mi ESE 9.2 mph - N/A   Clear
10:55 AM 82.8 °F 83.3 °F 61.3 °F 48% 30.01 in 10.0 mi SE 6.9 mph - N/A   Clear
11:15 AM 83.3 °F 83.9 °F 61.7 °F 48% 30.01 in 10.0 mi SE 6.9 mph - N/A   Clear
11:35 AM 85.3 °F 85.4 °F 60.8 °F 44% 30.01 in 10.0 mi SE 5.8 mph - N/A   Clear
11:55 AM 87.3 °F 86.7 °F 59.7 °F 39% 30.01 in 10.0 mi SE 4.6 mph - N/A   Clear
12:15 PM 88.7 °F 87.8 °F 58.5 °F 36% 30.00 in 10.0 mi SE 8.1 mph - N/A   Clear
12:35 PM 90.1 °F 88.8 °F 57.6 °F 33% 29.99 in 10.0 mi South 6.9 mph - N/A   Clear
12:55 PM 90.3 °F 88.8 °F 56.7 °F 32% 29.98 in 10.0 mi SSW 4.6 mph - N/A   Scattered Clouds
1:15 PM 93.0 °F 91.4 °F 56.5 °F 29% 29.98 in 10.0 mi South 9.2 mph - N/A   Scattered Clouds
1:35 PM 92.5 °F 90.7 °F 55.6 °F 29% 29.96 in 10.0 mi ESE 8.1 mph - N/A   Clear
1:55 PM 91.6 °F 89.6 °F 54.9 °F 29% 29.96 in 10.0 mi SE 12.7 mph - N/A   Scattered Clouds
2:15 PM 90.5 °F 88.5 °F 54.7 °F 30% 29.95 in 10.0 mi SSE 6.9 mph - N/A   Scattered Clouds
2:35 PM 89.8 °F 87.9 °F 55.4 °F 31% 29.96 in 10.0 mi SSE 3.5 mph - N/A   Scattered Clouds
2:55 PM 85.3 °F 84.8 °F 59.0 °F 41% 29.96 in 10.0 mi West 9.2 mph - N/A Thunderstorm Mostly Cloudy
3:15 PM 82.6 °F 82.9 °F 60.4 °F 47% 29.97 in 10.0 mi West 9.2 mph - N/A Rain Light Rain
3:35 PM 84.7 °F 84.0 °F 58.1 °F 40% 29.95 in 10.0 mi Calm Calm - N/A   Scattered Clouds
3:55 PM 83.3 °F 83.2 °F 59.4 °F 44% 29.93 in 10.0 mi West 3.5 mph - N/A   Clear
4:15 PM 83.7 °F 83.4 °F 59.0 °F 43% 29.93 in 10.0 mi Calm Calm - N/A   Scattered Clouds
4:35 PM 84.7 °F 84.0 °F 58.1 °F 40% 29.94 in 10.0 mi South 10.4 mph 17.3 mph N/A   Scattered Clouds
4:55 PM 83.7 °F 82.4 °F 53.8 °F 36% 29.93 in 10.0 mi SE 12.7 mph - N/A   Mostly Cloudy
5:15 PM 83.1 °F 82.4 °F 56.3 °F 40% 29.92 in 10.0 mi ESE 11.5 mph 16.1 mph N/A   Scattered Clouds
5:35 PM 82.8 °F 82.5 °F 58.1 °F 43% 29.92 in 10.0 mi ESE 10.4 mph 17.3 mph N/A   Scattered Clouds
5:55 PM 83.1 °F 83.0 °F 58.8 °F 44% 29.93 in 10.0 mi ESE 13.8 mph - N/A   Clear
6:15 PM 82.8 °F 82.8 °F 59.4 °F 45% 29.93 in 10.0 mi ESE 9.2 mph - N/A   Clear
6:35 PM 83.1 °F 82.9 °F 58.6 °F 43% 29.93 in 10.0 mi ESE 10.4 mph - N/A   Clear
6:55 PM 81.1 °F 81.4 °F 58.8 °F 46% 29.92 in 10.0 mi SE 8.1 mph - N/A   Clear
7:15 PM 82.0 °F 82.0 °F 58.3 °F 44% 29.92 in 10.0 mi SE 11.5 mph - N/A   Clear
7:35 PM 80.6 °F 80.9 °F 58.1 °F 46% 29.92 in 10.0 mi ESE 4.6 mph - N/A   Scattered Clouds
7:55 PM 78.8 °F - 58.6 °F 50% 29.92 in 10.0 mi SE 3.5 mph - N/A   Mostly Cloudy
8:15 PM 76.5 °F - 59.0 °F 55% 29.93 in 10.0 mi ESE 5.8 mph - N/A   Scattered Clouds
8:35 PM 75.7 °F - 59.4 °F 57% 29.93 in 10.0 mi ESE 6.9 mph - N/A   Clear
8:55 PM 75.2 °F - 60.1 °F 59% 29.93 in 10.0 mi SE 6.9 mph - N/A   Clear
9:15 PM 74.1 °F - 60.8 °F 63% 29.93 in 10.0 mi SE 3.5 mph - N/A   Clear
9:35 PM 72.0 °F - 61.5 °F 70% 29.93 in 10.0 mi Calm Calm - N/A   Clear
9:55 PM 70.9 °F - 62.6 °F 75% 29.93 in 10.0 mi Calm Calm - N/A   Clear
10:15 PM 71.2 °F - 61.9 °F 72% 29.93 in 10.0 mi SE 3.5 mph - N/A   Clear
10:35 PM 71.1 °F - 62.1 °F 73% 29.94 in 10.0 mi Calm Calm - N/A   Clear
10:55 PM 69.8 °F - 62.6 °F 78% 29.94 in 10.0 mi ENE 3.5 mph - N/A   Clear
11:15 PM 67.6 °F - 62.4 °F 83% 29.94 in 10.0 mi NNE 4.6 mph - N/A   Clear
11:35 PM 67.6 °F - 62.1 °F 82% 29.95 in 10.0 mi NE 4.6 mph - N/A   Clear
11:55 PM 68.2 °F - 62.2 °F 81% 29.95 in 10.0 mi ENE 5.8 mph - N/A   Clear